Time,TemperatureF,DewpointF,PressureIn,WindDirection,WindDirectionDegrees,WindSpeedMPH,WindSpeedGustMPH,Humidity,HourlyPrecipIn,Conditions,Clouds,dailyrainin,SolarRadiationWatts/m^2,SoftwareType,DateUTC
2013-10-21 06:24:00,50.4,49.0,30.09,West,270,3.5,3.5,95,0.00,CLR,,0.00,0.0,WeatherDisplay:10.37,2013-10-21 04:24:00,
2013-10-21 06:25:00,50.4,49.0,30.09,SW,225,3.5,3.5,95,0.00,CLR,,0.00,0.0,WeatherDisplay:10.37,2013-10-21 04:25:00,
2013-10-21 06:30:00,50.7,49.6,30.10,West,270,3.5,3.5,96,0.00,CLR,,0.00,0.0,WeatherDisplay:10.37,2013-10-21 04:30:00,
2013-10-21 06:35:00,50.9,49.8,30.09,North,0,2.3,2.3,96,0.00,CLR,,0.00,0.0,WeatherDisplay:10.37,2013-10-21 04:35:00,
2013-10-21 06:40:00,51.1,50.3,30.09,East,90,3.5,3.5,97,0.00,CLR,,0.00,0.0,WeatherDisplay:10.37,2013-10-21 04:40:00,
2013-10-21 06:45:00,51.3,50.4,30.08,SW,225,2.3,2.3,97,0.00,CLR,,0.00,0.0,WeatherDisplay:10.37,2013-10-21 04:45:00,
2013-10-21 06:50:00,51.3,50.4,30.08,NW,315,1.2,0.0,97,0.00,CLR,,0.00,0.0,WeatherDisplay:10.37,2013-10-21 04:50:00,
2013-10-21 06:55:00,51.3,50.4,30.09,NW,315,1.2,0.0,97,0.00,CLR,,0.00,0.0,WeatherDisplay:10.37,2013-10-21 04:55:00,
2013-10-21 07:00:00,51.3,50.4,30.09,NE,45,0.0,0.0,97,0.00,CLR,,0.00,0.0,WeatherDisplay:10.37,2013-10-21 05:00:00,
2013-10-21 07:05:00,51.4,50.6,30.09,SW,225,1.6,1.6,97,0.00,CLR,,0.00,0.0,WeatherDisplay:10.37,2013-10-21 05:05:00,
2013-10-21 07:10:00,51.3,50.4,30.10,West,270,2.3,2.3,97,0.00,OVC,,0.00,0.0,WeatherDisplay:10.37,2013-10-21 05:10:00,
2013-10-21 07:15:00,51.3,50.4,30.10,SW,225,3.5,3.5,97,0.00,OVC,,0.00,0.0,WeatherDisplay:10.37,2013-10-21 05:15:00,
2013-10-21 07:20:00,51.4,50.6,30.11,SW,225,3.5,3.5,97,0.00,OVC,,0.00,0.0,WeatherDisplay:10.37,2013-10-21 05:20:00,
2013-10-21 07:25:00,51.4,50.6,30.11,West,270,3.5,3.5,97,0.00,OVC,,0.00,0.0,WeatherDisplay:10.37,2013-10-21 05:25:00,
2013-10-21 07:30:00,51.4,50.6,30.11,West,270,3.5,3.5,97,0.00,OVC,,0.00,0.9,WeatherDisplay:10.37,2013-10-21 05:30:00,
2013-10-21 07:35:00,51.4,50.6,30.11,SW,225,3.5,3.5,97,0.00,OVC,,0.00,2.2,WeatherDisplay:10.37,2013-10-21 05:35:00,
2013-10-21 07:40:00,51.6,50.8,30.11,West,270,3.5,3.5,97,0.00,OVC,,0.00,3.1,WeatherDisplay:10.37,2013-10-21 05:40:00,
2013-10-21 07:45:00,51.8,50.7,30.11,SW,225,1.2,0.0,96,0.00,OVC,,0.00,3.5,WeatherDisplay:10.37,2013-10-21 05:45:00,
2013-10-21 07:50:00,51.8,50.7,30.11,NW,315,1.2,0.0,96,0.00,OVC,,0.00,4.2,WeatherDisplay:10.37,2013-10-21 05:50:00,
2013-10-21 07:55:00,52.0,50.9,30.11,NE,45,1.2,0.0,96,0.00,OVC,,0.00,5.9,WeatherDisplay:10.37,2013-10-21 05:55:00,
2013-10-21 08:01:00,52.0,50.9,30.11,West,270,3.5,3.5,96,0.00,OVC,,0.00,7.8,WeatherDisplay:10.37,2013-10-21 06:01:00,
2013-10-21 08:06:00,52.0,50.9,30.11,West,270,1.2,1.2,96,0.00,OVC,,0.00,9.1,WeatherDisplay:10.37,2013-10-21 06:06:00,
2013-10-21 08:11:00,52.3,51.2,30.11,North,0,1.2,0.0,96,0.00,OVC,,0.00,11.5,WeatherDisplay:10.37,2013-10-21 06:11:00,
2013-10-21 08:16:00,52.3,51.2,30.11,NE,45,0.0,0.0,96,0.00,BKN,,0.00,16.6,WeatherDisplay:10.37,2013-10-21 06:16:00,
2013-10-21 08:21:00,52.5,51.4,30.11,NW,315,1.2,0.0,96,0.00,BKN,,0.00,19.9,WeatherDisplay:10.37,2013-10-21 06:21:00,
2013-10-21 08:26:00,52.5,51.4,30.12,East,90,0.0,0.0,96,0.00,BKN,,0.00,20.8,WeatherDisplay:10.37,2013-10-21 06:26:00,
2013-10-21 08:31:00,52.7,51.6,30.12,NW,315,1.2,0.0,96,0.00,OVC,,0.00,19.4,WeatherDisplay:10.37,2013-10-21 06:31:00,
2013-10-21 08:36:00,52.9,51.8,30.12,SW,225,2.3,2.3,96,0.00,OVC,,0.00,18.8,WeatherDisplay:10.37,2013-10-21 06:36:00,
2013-10-21 08:41:00,53.1,51.7,30.13,West,270,2.3,2.3,95,0.00,OVC,,0.00,20.1,WeatherDisplay:10.37,2013-10-21 06:41:00,
2013-10-21 08:46:00,53.2,51.8,30.13,SW,225,1.2,0.0,95,0.00,OVC,,0.00,22.6,WeatherDisplay:10.37,2013-10-21 06:46:00,
2013-10-21 08:51:00,53.2,51.8,30.13,West,270,2.3,2.3,95,0.00,OVC,,0.00,26.7,WeatherDisplay:10.37,2013-10-21 06:51:00,
2013-10-21 08:56:00,53.4,52.0,30.13,NW,315,1.2,0.0,95,0.00,BKN,,0.00,31.0,WeatherDisplay:10.37,2013-10-21 06:56:00,
2013-10-21 09:01:00,53.6,51.9,30.13,SW,225,1.2,0.0,94,0.00,BKN,,0.00,38.3,WeatherDisplay:10.37,2013-10-21 07:01:00,
2013-10-21 09:06:00,53.8,52.1,30.13,NW,315,1.2,0.0,94,0.00,BKN,,0.00,46.5,WeatherDisplay:10.37,2013-10-21 07:06:00,
2013-10-21 09:11:00,54.0,52.3,30.13,SW,225,1.2,0.0,94,0.00,BKN,,0.00,56.5,WeatherDisplay:10.37,2013-10-21 07:11:00,
2013-10-21 09:16:00,54.1,52.2,30.13,West,270,1.2,1.2,93,0.00,BKN,,0.00,68.4,WeatherDisplay:10.37,2013-10-21 07:16:00,
2013-10-21 09:21:00,54.1,52.2,30.13,East,90,1.2,0.0,93,0.00,BKN,,0.00,86.2,WeatherDisplay:10.37,2013-10-21 07:21:00,
2013-10-21 09:26:00,54.3,52.3,30.13,NW,315,1.2,1.2,93,0.00,BKN,,0.00,92.9,WeatherDisplay:10.37,2013-10-21 07:26:00,
2013-10-21 09:31:00,54.5,52.5,30.14,NW,315,1.2,0.0,93,0.00,BKN,,0.00,91.9,WeatherDisplay:10.37,2013-10-21 07:31:00,
2013-10-21 09:36:00,54.9,52.9,30.13,NW,315,1.6,1.6,93,0.00,BKN,,0.00,92.5,WeatherDisplay:10.37,2013-10-21 07:36:00,
2013-10-21 09:41:00,55.0,52.8,30.14,West,270,2.3,2.3,92,0.00,BKN,,0.00,102.6,WeatherDisplay:10.37,2013-10-21 07:41:00,
2013-10-21 09:46:00,55.4,53.1,30.14,West,270,1.2,0.0,92,0.00,BKN,,0.00,125.4,WeatherDisplay:10.37,2013-10-21 07:46:00,
2013-10-21 09:51:00,55.6,53.3,30.14,NW,315,1.2,0.0,92,0.00,SCT,,0.00,146.4,WeatherDisplay:10.37,2013-10-21 07:51:00,
2013-10-21 09:56:00,55.9,53.4,30.14,SW,225,2.3,2.3,91,0.00,BKN,,0.00,117.9,WeatherDisplay:10.37,2013-10-21 07:56:00,
2013-10-21 10:01:00,55.9,53.4,30.14,East,90,1.2,1.2,91,0.00,BKN,,0.00,115.5,WeatherDisplay:10.37,2013-10-21 08:01:00,
2013-10-21 10:06:00,56.3,53.4,30.14,West,270,2.3,2.3,90,0.00,BKN,,0.00,128.3,WeatherDisplay:10.37,2013-10-21 08:06:00,
2013-10-21 10:11:00,56.5,53.6,30.14,SE,135,0.0,0.0,90,0.00,BKN,,0.00,135.1,WeatherDisplay:10.37,2013-10-21 08:11:00,
2013-10-21 10:16:00,56.7,53.5,30.14,SW,225,0.0,0.7,89,0.00,SCT,,0.00,151.7,WeatherDisplay:10.37,2013-10-21 08:16:00,
2013-10-21 10:21:00,56.8,53.6,30.14,South,180,1.2,1.2,89,0.00,SCT,,0.00,180.5,WeatherDisplay:10.37,2013-10-21 08:21:00,
2013-10-21 10:26:00,57.2,53.7,30.14,SW,225,4.6,4.6,88,0.00,SCT,,0.00,162.4,WeatherDisplay:10.37,2013-10-21 08:26:00,
2013-10-21 10:31:00,57.4,53.5,30.15,South,180,3.5,3.5,87,0.00,BKN,,0.00,156.8,WeatherDisplay:10.37,2013-10-21 08:31:00,
2013-10-21 10:36:00,57.7,53.9,30.15,SW,225,5.8,5.8,87,0.00,BKN,,0.00,153.2,WeatherDisplay:10.37,2013-10-21 08:36:00,
2013-10-21 10:41:00,57.9,54.1,30.15,West,270,5.4,5.4,87,0.00,BKN,,0.00,156.1,WeatherDisplay:10.37,2013-10-21 08:41:00,
2013-10-21 10:46:00,58.1,53.9,30.14,South,180,3.5,3.5,86,0.00,SCT,,0.00,179.3,WeatherDisplay:10.37,2013-10-21 08:46:00,
2013-10-21 10:51:00,58.5,54.3,30.15,SW,225,2.3,2.3,86,0.00,SCT,,0.00,191.2,WeatherDisplay:10.37,2013-10-21 08:51:00,
2013-10-21 10:56:00,58.6,54.5,30.14,SW,225,3.5,3.5,86,0.00,SCT,,0.00,212.9,WeatherDisplay:10.37,2013-10-21 08:56:00,
2013-10-21 11:01:00,59.0,54.5,30.14,West,270,3.5,3.5,85,0.00,SCT,,0.00,221.2,WeatherDisplay:10.37,2013-10-21 09:01:00,
2013-10-21 11:06:00,59.2,54.3,30.15,NW,315,3.5,3.5,84,0.00,FEW,,0.00,248.7,WeatherDisplay:10.37,2013-10-21 09:06:00,
2013-10-21 11:11:00,59.5,54.7,30.14,NW,315,3.5,3.5,84,0.00,CLR,,0.00,335.1,WeatherDisplay:10.37,2013-10-21 09:11:00,
2013-10-21 11:16:00,59.7,54.5,30.15,West,270,2.3,2.3,83,0.00,CLR,,0.00,391.5,WeatherDisplay:10.37,2013-10-21 09:16:00,
2013-10-21 11:21:00,60.1,54.9,30.15,West,270,3.5,3.5,83,0.00,FEW,,0.00,310.3,WeatherDisplay:10.37,2013-10-21 09:21:00,
2013-10-21 11:26:00,60.4,55.3,30.15,South,180,3.5,0.0,83,0.00,FEW,,0.00,286.0,WeatherDisplay:10.37,2013-10-21 09:26:00,
2013-10-21 11:31:00,60.8,54.9,30.15,SW,225,2.3,0.0,81,0.00,FEW,,0.00,301.4,WeatherDisplay:10.37,2013-10-21 09:31:00,
2013-10-21 11:36:00,61.2,55.3,30.15,SE,135,3.5,3.5,81,0.00,FEW,,0.00,275.8,WeatherDisplay:10.37,2013-10-21 09:36:00,
2013-10-21 11:41:00,61.3,55.5,30.15,East,90,3.5,0.0,81,0.00,FEW,,0.00,309.9,WeatherDisplay:10.37,2013-10-21 09:41:00,
2013-10-21 11:46:00,61.7,55.8,30.14,SW,225,3.5,0.0,81,0.00,FEW,,0.00,298.4,WeatherDisplay:10.37,2013-10-21 09:46:00,
2013-10-21 11:51:00,61.9,56.0,30.14,WSW,248,2.3,2.3,81,0.00,FEW,,0.00,302.0,WeatherDisplay:10.37,2013-10-21 09:51:00,
2013-10-21 11:56:00,62.2,56.0,30.14,NE,45,3.5,3.5,80,0.00,CLR,,0.00,362.5,WeatherDisplay:10.37,2013-10-21 09:56:00,
2013-10-21 12:01:00,62.6,56.0,30.14,NW,315,1.2,0.0,79,0.00,CLR,,0.00,356.6,WeatherDisplay:10.37,2013-10-21 10:01:00,
2013-10-21 12:06:00,62.6,56.0,30.14,NW,315,1.2,0.0,79,0.00,CLR,,0.00,402.0,WeatherDisplay:10.37,2013-10-21 10:06:00,
2013-10-21 12:11:00,63.3,56.0,30.14,South,180,3.5,3.5,77,0.00,FEW,,0.00,284.6,WeatherDisplay:10.37,2013-10-21 10:11:00,
2013-10-21 12:16:00,63.7,56.0,30.14,West,270,3.5,3.5,76,0.00,FEW,,0.00,313.7,WeatherDisplay:10.37,2013-10-21 10:16:00,
2013-10-21 12:21:00,63.9,56.1,30.14,SW,225,4.6,4.6,76,0.00,FEW,,0.00,296.2,WeatherDisplay:10.37,2013-10-21 10:21:00,
2013-10-21 12:26:00,64.0,56.0,30.14,SE,135,3.5,0.0,75,0.00,FEW,,0.00,287.5,WeatherDisplay:10.37,2013-10-21 10:26:00,
2013-10-21 12:31:00,64.2,56.1,30.14,SW,225,5.8,5.8,75,0.00,FEW,,0.00,335.1,WeatherDisplay:10.37,2013-10-21 10:31:00,
2013-10-21 12:36:00,64.4,56.7,30.14,West,270,3.5,3.5,76,0.00,CLR,,0.00,438.1,WeatherDisplay:10.37,2013-10-21 10:36:00,
2013-10-21 12:41:00,64.8,57.0,30.14,West,270,5.8,5.8,76,0.00,CLR,,0.00,484.8,WeatherDisplay:10.37,2013-10-21 10:41:00,
2013-10-21 12:46:00,65.3,57.2,30.14,WSW,248,2.3,2.3,75,0.00,CLR,,0.00,497.9,WeatherDisplay:10.37,2013-10-21 10:46:00,
2013-10-21 12:51:00,65.8,57.3,30.14,SE,135,2.3,2.3,74,0.00,CLR,,0.00,498.6,WeatherDisplay:10.37,2013-10-21 10:51:00,
2013-10-21 12:56:00,66.4,57.5,30.14,South,180,5.8,5.8,73,0.00,CLR,,0.00,451.8,WeatherDisplay:10.37,2013-10-21 10:56:00,
2013-10-21 13:01:00,66.7,57.8,30.14,SW,225,2.3,2.3,73,0.00,CLR,,0.00,436.8,WeatherDisplay:10.37,2013-10-21 11:01:00,
2013-10-21 13:06:00,67.3,57.6,30.14,South,180,4.6,4.6,71,0.00,CLR,,0.00,417.6,WeatherDisplay:10.37,2013-10-21 11:06:00,
2013-10-21 13:11:00,67.6,57.5,30.14,SE,135,3.5,3.5,70,0.00,CLR,,0.00,363.1,WeatherDisplay:10.37,2013-10-21 11:11:00,
2013-10-21 13:16:00,68.0,57.0,30.14,West,270,3.5,3.5,68,0.00,CLR,,0.00,360.2,WeatherDisplay:10.37,2013-10-21 11:16:00,
2013-10-21 13:21:00,68.2,57.2,30.14,West,270,3.5,3.5,68,0.00,CLR,,0.00,336.0,WeatherDisplay:10.37,2013-10-21 11:21:00,
2013-10-21 13:26:00,68.4,57.0,30.14,SW,225,3.5,3.5,67,0.00,CLR,,0.00,371.7,WeatherDisplay:10.37,2013-10-21 11:26:00,
2013-10-21 13:31:00,68.5,57.1,30.14,South,180,3.5,3.5,67,0.00,CLR,,0.00,366.7,WeatherDisplay:10.37,2013-10-21 11:31:00,
2013-10-21 13:36:00,68.7,57.3,30.14,West,270,5.8,5.8,67,0.00,FEW,,0.00,265.2,WeatherDisplay:10.37,2013-10-21 11:36:00,
2013-10-21 13:41:00,68.9,57.5,30.14,SE,135,5.8,5.8,67,0.00,CLR,,0.00,359.7,WeatherDisplay:10.37,2013-10-21 11:41:00,
2013-10-21 13:46:00,69.1,56.8,30.14,SW,225,5.8,5.8,65,0.00,CLR,,0.00,382.5,WeatherDisplay:10.37,2013-10-21 11:46:00,
2013-10-21 13:51:00,69.1,56.8,30.14,NW,315,4.6,4.6,65,0.00,FEW,,0.00,306.7,WeatherDisplay:10.37,2013-10-21 11:51:00,
2013-10-21 13:56:00,69.3,56.6,30.14,West,270,3.5,3.5,64,0.00,FEW,,0.00,313.4,WeatherDisplay:10.37,2013-10-21 11:56:00,
2013-10-21 14:01:00,69.4,56.7,30.14,West,270,3.5,3.5,64,0.00,CLR,,0.00,359.0,WeatherDisplay:10.37,2013-10-21 12:01:00,
2013-10-21 14:06:00,69.4,56.7,30.14,West,270,3.5,3.5,64,0.00,CLR,,0.00,297.5,WeatherDisplay:10.37,2013-10-21 12:06:00,
2013-10-21 14:11:00,69.8,56.6,30.14,West,270,6.9,6.9,63,0.00,CLR,,0.00,404.1,WeatherDisplay:10.37,2013-10-21 12:11:00,
2013-10-21 14:16:00,70.0,56.4,30.14,SW,225,4.6,4.6,62,0.00,CLR,,0.00,381.6,WeatherDisplay:10.37,2013-10-21 12:16:00,
2013-10-21 14:21:00,70.2,57.0,30.14,SW,225,5.8,5.8,63,0.00,CLR,,0.00,361.3,WeatherDisplay:10.37,2013-10-21 12:21:00,
2013-10-21 14:26:00,70.3,56.7,30.14,SW,225,3.5,3.5,62,0.00,CLR,,0.00,352.3,WeatherDisplay:10.37,2013-10-21 12:26:00,
2013-10-21 14:31:00,70.3,56.7,30.13,SW,225,3.5,3.5,62,0.00,CLR,,0.00,345.8,WeatherDisplay:10.37,2013-10-21 12:31:00,
2013-10-21 14:36:00,70.5,56.4,30.13,WSW,248,8.1,8.1,61,0.00,CLR,,0.00,333.4,WeatherDisplay:10.37,2013-10-21 12:36:00,
2013-10-21 14:41:00,70.7,57.0,30.13,SW,225,8.1,8.1,62,0.00,CLR,,0.00,322.4,WeatherDisplay:10.37,2013-10-21 12:41:00,
2013-10-21 14:46:00,70.7,56.6,30.13,West,270,3.8,3.8,61,0.00,CLR,,0.00,284.0,WeatherDisplay:10.37,2013-10-21 12:46:00,
2013-10-21 14:51:00,70.7,57.0,30.13,NW,315,4.6,4.6,62,0.00,CLR,,0.00,297.7,WeatherDisplay:10.37,2013-10-21 12:51:00,
2013-10-21 14:56:00,70.9,56.8,30.13,NW,315,8.1,8.1,61,0.00,CLR,,0.00,274.8,WeatherDisplay:10.37,2013-10-21 12:56:00,
2013-10-21 15:01:00,71.1,56.9,30.13,SW,225,5.8,5.8,61,0.00,CLR,,0.00,264.4,WeatherDisplay:10.37,2013-10-21 13:01:00,
2013-10-21 15:06:00,71.4,57.3,30.12,NW,315,3.5,3.5,61,0.00,FEW,,0.00,248.9,WeatherDisplay:10.37,2013-10-21 13:06:00,
2013-10-21 15:11:00,71.4,57.3,30.13,South,180,4.6,4.6,61,0.00,FEW,,0.00,242.1,WeatherDisplay:10.37,2013-10-21 13:11:00,
2013-10-21 15:16:00,71.4,57.3,30.13,South,180,5.8,5.8,61,0.00,FEW,,0.00,203.8,WeatherDisplay:10.37,2013-10-21 13:16:00,
2013-10-21 15:21:00,71.1,56.5,30.13,West,270,5.8,5.8,60,0.00,FEW,,0.00,197.3,WeatherDisplay:10.37,2013-10-21 13:21:00,
2013-10-21 15:26:00,71.2,56.6,30.13,East,90,4.6,4.6,60,0.00,FEW,,0.00,207.6,WeatherDisplay:10.37,2013-10-21 13:26:00,
2013-10-21 15:31:00,70.9,56.3,30.13,NE,45,3.5,0.0,60,0.00,FEW,,0.00,197.6,WeatherDisplay:10.37,2013-10-21 13:31:00,
2013-10-21 15:36:00,70.7,55.7,30.12,West,270,2.3,2.3,59,0.00,FEW,,0.00,181.6,WeatherDisplay:10.37,2013-10-21 13:36:00,
2013-10-21 15:41:00,70.7,56.6,30.12,West,270,4.6,4.6,61,0.00,BKN,,0.00,122.9,WeatherDisplay:10.37,2013-10-21 13:41:00,
2013-10-21 15:46:00,70.5,56.0,30.12,South,180,2.3,2.3,60,0.00,SCT,,0.00,153.1,WeatherDisplay:10.37,2013-10-21 13:46:00,
2013-10-21 15:51:00,70.3,55.8,30.13,SE,135,3.5,3.5,60,0.00,SCT,,0.00,143.4,WeatherDisplay:10.37,2013-10-21 13:51:00,
2013-10-21 15:56:00,70.3,55.8,30.13,WSW,248,3.5,3.5,60,0.00,SCT,,0.00,129.7,WeatherDisplay:10.37,2013-10-21 13:56:00,
2013-10-21 16:01:00,70.3,56.2,30.13,SW,225,8.1,8.1,61,0.00,SCT,,0.00,122.4,WeatherDisplay:10.37,2013-10-21 14:01:00,
2013-10-21 16:06:00,70.3,56.2,30.12,SW,225,6.9,6.9,61,0.00,BKN,,0.00,90.6,WeatherDisplay:10.37,2013-10-21 14:06:00,
2013-10-21 16:11:00,70.3,55.8,30.13,SW,225,5.8,5.8,60,0.00,BKN,,0.00,88.9,WeatherDisplay:10.37,2013-10-21 14:11:00,
2013-10-21 16:16:00,70.3,55.8,30.13,SW,225,5.8,5.8,60,0.00,BKN,,0.00,69.0,WeatherDisplay:10.37,2013-10-21 14:16:00,
2013-10-21 16:21:00,70.3,55.8,30.13,SW,225,5.8,5.8,60,0.00,BKN,,0.00,70.0,WeatherDisplay:10.37,2013-10-21 14:21:00,
2013-10-21 16:26:00,70.2,56.1,30.13,East,90,3.5,3.5,61,0.00,BKN,,0.00,59.0,WeatherDisplay:10.37,2013-10-21 14:26:00,
2013-10-21 16:31:00,70.2,55.6,30.13,SE,135,3.5,3.5,60,0.00,BKN,,0.00,58.4,WeatherDisplay:10.37,2013-10-21 14:31:00,
2013-10-21 16:36:00,70.2,56.1,30.13,SW,225,3.5,3.5,61,0.00,BKN,,0.00,52.0,WeatherDisplay:10.37,2013-10-21 14:36:00,
2013-10-21 16:41:00,70.0,55.9,30.13,SW,225,5.8,5.8,61,0.00,BKN,,0.00,45.2,WeatherDisplay:10.37,2013-10-21 14:41:00,
2013-10-21 16:46:00,70.0,55.9,30.13,West,270,3.5,3.5,61,0.00,BKN,,0.00,39.6,WeatherDisplay:10.37,2013-10-21 14:46:00,
2013-10-21 16:51:00,69.8,55.7,30.13,SE,135,2.3,2.3,61,0.00,OVC,,0.00,20.6,WeatherDisplay:10.37,2013-10-21 14:51:00,
2013-10-21 16:56:00,69.8,55.7,30.13,SW,225,2.3,2.3,61,0.00,OVC,,0.00,14.4,WeatherDisplay:10.37,2013-10-21 14:56:00,
2013-10-21 17:01:00,69.4,56.3,30.13,East,90,2.3,2.3,63,0.00,OVC,,0.00,8.9,WeatherDisplay:10.37,2013-10-21 15:01:00,
2013-10-21 17:06:00,69.1,56.0,30.14,West,270,2.3,2.3,63,0.00,OVC,,0.00,7.7,WeatherDisplay:10.37,2013-10-21 15:06:00,
2013-10-21 17:11:00,68.9,55.8,30.14,NW,315,1.2,0.0,63,0.00,OVC,,0.00,6.3,WeatherDisplay:10.37,2013-10-21 15:11:00,
2013-10-21 17:16:00,68.7,56.0,30.14,SE,135,1.2,0.0,64,0.00,OVC,,0.00,4.5,WeatherDisplay:10.37,2013-10-21 15:16:00,
2013-10-21 17:21:00,68.4,55.7,30.14,North,0,1.2,0.0,64,0.00,OVC,,0.00,3.8,WeatherDisplay:10.37,2013-10-21 15:21:00,
2013-10-21 17:26:00,68.2,55.5,30.14,North,0,1.2,0.0,64,0.00,OVC,,0.00,2.7,WeatherDisplay:10.37,2013-10-21 15:26:00,
2013-10-21 17:31:00,67.8,56.0,30.14,East,90,1.2,0.0,66,0.00,OVC,,0.00,1.8,WeatherDisplay:10.37,2013-10-21 15:31:00,
2013-10-21 17:36:00,67.5,55.7,30.14,East,90,1.2,0.0,66,0.00,OVC,,0.00,1.1,WeatherDisplay:10.37,2013-10-21 15:36:00,
2013-10-21 17:41:00,67.3,55.5,30.14,East,90,1.2,0.0,66,0.00,OVC,,0.00,0.8,WeatherDisplay:10.37,2013-10-21 15:41:00,
2013-10-21 17:46:00,66.9,55.6,30.14,NE,45,1.2,0.0,67,0.00,CLR,,0.00,0.3,WeatherDisplay:10.37,2013-10-21 15:46:00,
2013-10-21 17:51:00,66.4,55.1,30.14,NE,45,1.2,0.0,67,0.00,CLR,,0.00,0.1,WeatherDisplay:10.37,2013-10-21 15:51:00,
2013-10-21 17:56:00,66.0,55.6,30.14,NW,315,1.2,0.0,69,0.00,CLR,,0.00,0.1,WeatherDisplay:10.37,2013-10-21 15:56:00,
2013-10-21 18:01:00,65.7,55.2,30.14,North,0,1.2,0.0,69,0.00,CLR,,0.00,0.0,WeatherDisplay:10.37,2013-10-21 16:01:00,
2013-10-21 18:06:00,65.3,55.3,30.14,North,0,0.0,0.0,70,0.00,CLR,,0.00,0.0,WeatherDisplay:10.37,2013-10-21 16:06:00,
2013-10-21 18:11:00,64.8,54.7,30.15,NE,45,0.0,0.0,70,0.00,CLR,,0.00,0.0,WeatherDisplay:10.37,2013-10-21 16:11:00,
2013-10-21 18:16:00,64.4,54.4,30.14,NE,45,0.0,0.0,70,0.00,CLR,,0.00,0.0,WeatherDisplay:10.37,2013-10-21 16:16:00,
2013-10-21 18:21:00,64.0,54.4,30.14,NE,45,0.0,0.0,71,0.00,CLR,,0.00,0.0,WeatherDisplay:10.37,2013-10-21 16:21:00,
2013-10-21 18:26:00,63.5,53.9,30.15,SE,135,1.2,0.0,71,0.00,CLR,,0.00,0.0,WeatherDisplay:10.37,2013-10-21 16:26:00,
2013-10-21 18:31:00,63.1,54.0,30.15,NW,315,0.0,0.0,72,0.00,CLR,,0.00,0.0,WeatherDisplay:10.37,2013-10-21 16:31:00,
2013-10-21 18:36:00,62.8,53.6,30.15,East,90,1.2,1.2,72,0.00,CLR,,0.00,0.0,WeatherDisplay:10.37,2013-10-21 16:36:00,
2013-10-21 18:41:00,62.2,53.5,30.15,SE,135,1.2,1.2,73,0.00,CLR,,0.00,0.0,WeatherDisplay:10.37,2013-10-21 16:41:00,
2013-10-21 18:46:00,62.1,53.7,30.15,East,90,0.0,0.0,74,0.00,CLR,,0.00,0.0,WeatherDisplay:10.37,2013-10-21 16:46:00,
2013-10-21 18:51:00,61.7,53.3,30.15,East,90,0.0,0.0,74,0.00,CLR,,0.00,0.0,WeatherDisplay:10.37,2013-10-21 16:51:00,
2013-10-21 18:56:00,61.3,53.3,30.15,NE,45,1.2,0.0,75,0.00,CLR,,0.00,0.0,WeatherDisplay:10.37,2013-10-21 16:56:00,
2013-10-21 19:01:00,61.0,53.4,30.15,East,90,0.0,0.0,76,0.00,CLR,,0.00,0.0,WeatherDisplay:10.37,2013-10-21 17:01:00,
2013-10-21 19:06:00,60.6,53.4,30.15,East,90,0.0,0.0,77,0.00,CLR,,0.00,0.0,WeatherDisplay:10.37,2013-10-21 17:06:00,
2013-10-21 19:11:00,60.3,53.0,30.15,East,90,0.0,0.0,77,0.00,CLR,,0.00,0.0,WeatherDisplay:10.37,2013-10-21 17:11:00,
2013-10-21 19:16:00,60.1,53.2,30.15,East,90,0.0,0.0,78,0.00,CLR,,0.00,0.0,WeatherDisplay:10.37,2013-10-21 17:16:00,
2013-10-21 19:21:00,59.7,53.2,30.14,East,90,0.0,0.0,79,0.00,CLR,,0.00,0.0,WeatherDisplay:10.37,2013-10-21 17:21:00,
2013-10-21 19:26:00,59.4,53.2,30.15,NE,45,1.2,0.0,80,0.00,CLR,,0.00,0.0,WeatherDisplay:10.37,2013-10-21 17:26:00,
2013-10-21 19:31:00,59.0,53.2,30.14,NE,45,1.2,1.2,81,0.00,CLR,,0.00,0.0,WeatherDisplay:10.37,2013-10-21 17:31:00,
2013-10-21 19:36:00,58.8,53.7,30.14,NE,45,1.2,1.2,83,0.00,CLR,,0.00,0.0,WeatherDisplay:10.37,2013-10-21 17:36:00,
2013-10-21 19:41:00,58.5,53.3,30.14,NE,45,1.2,0.0,83,0.00,CLR,,0.00,0.0,WeatherDisplay:10.37,2013-10-21 17:41:00,
2013-10-21 19:46:00,58.3,53.1,30.14,East,90,1.2,1.2,83,0.00,CLR,,0.00,0.0,WeatherDisplay:10.37,2013-10-21 17:46:00,
2013-10-21 19:51:00,58.1,53.0,30.14,East,90,0.0,0.0,83,0.00,CLR,,0.00,0.0,WeatherDisplay:10.37,2013-10-21 17:51:00,
2013-10-21 19:56:00,57.7,52.6,30.14,East,90,1.2,0.0,83,0.00,CLR,,0.00,0.0,WeatherDisplay:10.37,2013-10-21 17:56:00,
2013-10-21 20:01:00,57.6,52.8,30.14,NE,45,1.2,0.0,84,0.00,CLR,,0.00,0.0,WeatherDisplay:10.37,2013-10-21 18:01:00,
2013-10-21 20:06:00,57.6,52.8,30.14,NE,45,1.2,0.0,84,0.00,CLR,,0.00,0.0,WeatherDisplay:10.37,2013-10-21 18:06:00,
2013-10-21 20:12:00,57.0,52.6,30.14,NW,315,1.2,0.0,85,0.00,CLR,,0.00,0.0,WeatherDisplay:10.37,2013-10-21 18:12:00,
2013-10-21 20:17:00,56.5,52.0,30.14,NE,45,1.2,0.0,85,0.00,CLR,,0.00,0.0,WeatherDisplay:10.37,2013-10-21 18:17:00,
2013-10-21 20:22:00,56.3,52.2,30.14,North,0,0.0,0.0,86,0.00,CLR,,0.00,0.0,WeatherDisplay:10.37,2013-10-21 18:22:00,
2013-10-21 20:27:00,55.9,51.8,30.14,North,0,1.2,0.0,86,0.00,CLR,,0.00,0.0,WeatherDisplay:10.37,2013-10-21 18:27:00,
2013-10-21 20:32:00,55.9,51.8,30.14,East,90,0.0,0.0,86,0.00,CLR,,0.00,0.0,WeatherDisplay:10.37,2013-10-21 18:32:00,
2013-10-21 20:37:00,55.8,51.6,30.14,NE,45,1.2,0.0,86,0.00,CLR,,0.00,0.0,WeatherDisplay:10.37,2013-10-21 18:37:00,
2013-10-21 20:42:00,55.6,51.5,30.14,NE,45,1.2,0.0,86,0.00,CLR,,0.00,0.0,WeatherDisplay:10.37,2013-10-21 18:42:00,
2013-10-21 20:47:00,55.4,51.6,30.14,North,0,0.0,0.0,87,0.00,CLR,,0.00,0.0,WeatherDisplay:10.37,2013-10-21 18:47:00,
2013-10-21 20:52:00,55.2,51.4,30.14,NE,45,1.6,1.6,87,0.00,CLR,,0.00,0.0,WeatherDisplay:10.37,2013-10-21 18:52:00,
2013-10-21 20:57:00,55.0,51.2,30.14,NE,45,1.2,0.0,87,0.00,CLR,,0.00,0.0,WeatherDisplay:10.37,2013-10-21 18:57:00,
2013-10-21 21:02:00,54.9,51.1,30.14,NE,45,0.0,0.0,87,0.00,CLR,,0.00,0.0,WeatherDisplay:10.37,2013-10-21 19:02:00,
2013-10-21 21:07:00,54.7,50.6,30.14,NE,45,0.0,0.0,86,0.00,CLR,,0.00,0.0,WeatherDisplay:10.37,2013-10-21 19:07:00,
2013-10-21 21:12:00,54.5,50.4,30.14,NE,45,0.0,0.0,86,0.00,CLR,,0.00,0.0,WeatherDisplay:10.37,2013-10-21 19:12:00,
2013-10-21 21:17:00,54.3,50.2,30.14,NE,45,0.0,0.0,86,0.00,CLR,,0.00,0.0,WeatherDisplay:10.37,2013-10-21 19:17:00,
2013-10-21 21:22:00,54.1,50.0,30.14,NE,45,0.0,0.0,86,0.00,CLR,,0.00,0.0,WeatherDisplay:10.37,2013-10-21 19:22:00,
2013-10-21 21:27:00,54.1,50.0,30.14,NE,45,0.0,0.0,86,0.00,CLR,,0.00,0.0,WeatherDisplay:10.37,2013-10-21 19:27:00,
2013-10-21 21:32:00,54.0,49.9,30.14,NE,45,0.0,0.0,86,0.00,CLR,,0.00,0.0,WeatherDisplay:10.37,2013-10-21 19:32:00,
2013-10-21 21:37:00,53.8,49.7,30.14,NE,45,0.0,0.0,86,0.00,CLR,,0.00,0.0,WeatherDisplay:10.37,2013-10-21 19:37:00,
2013-10-21 21:42:00,53.6,49.5,30.14,NE,45,0.0,0.0,86,0.00,CLR,,0.00,0.0,WeatherDisplay:10.37,2013-10-21 19:42:00,
2013-10-21 21:47:00,53.4,49.6,30.15,NE,45,0.0,0.0,87,0.00,CLR,,0.00,0.0,WeatherDisplay:10.37,2013-10-21 19:47:00,
2013-10-21 21:52:00,53.2,49.8,30.14,NE,45,0.0,0.0,88,0.00,CLR,,0.00,0.0,WeatherDisplay:10.37,2013-10-21 19:52:00,
2013-10-21 21:57:00,53.2,49.8,30.15,NE,45,0.0,0.0,88,0.00,CLR,,0.00,0.0,WeatherDisplay:10.37,2013-10-21 19:57:00,
2013-10-21 22:02:00,53.1,49.6,30.14,NE,45,0.0,0.0,88,0.00,CLR,,0.00,0.0,WeatherDisplay:10.37,2013-10-21 20:02:00,
2013-10-21 22:07:00,53.1,49.6,30.14,NE,45,0.0,0.0,88,0.00,CLR,,0.00,0.0,WeatherDisplay:10.37,2013-10-21 20:07:00,
2013-10-21 22:12:00,52.9,49.7,30.15,NE,45,0.0,0.0,89,0.00,CLR,,0.00,0.0,WeatherDisplay:10.37,2013-10-21 20:12:00,
2013-10-21 22:17:00,52.7,49.5,30.15,East,90,0.0,0.0,89,0.00,CLR,,0.00,0.0,WeatherDisplay:10.37,2013-10-21 20:17:00,
2013-10-21 22:22:00,52.5,49.4,30.14,East,90,0.0,0.0,89,0.00,CLR,,0.00,0.0,WeatherDisplay:10.37,2013-10-21 20:22:00,
2013-10-21 22:27:00,52.5,49.7,30.15,East,90,1.2,1.2,90,0.00,CLR,,0.00,0.0,WeatherDisplay:10.37,2013-10-21 20:27:00,
2013-10-21 22:32:00,52.3,49.5,30.14,East,90,0.0,0.0,90,0.00,CLR,,0.00,0.0,WeatherDisplay:10.37,2013-10-21 20:32:00,